Погода в Львове

Поиск расширенной информации на нашем сайте:

Полезная информация:

Новости сайта



02.01.2020
Опубликован Долгосрочный прогноз погоды по городам России и ближнего зарубежья на январь 2020 года.
Карты: Прогноз на январь и февраль 2020 года, Сравнение прогнозируемой аномалии приземной температуры воздуха на январь 2020 года по разным моделям.




Погода в Львове - сегодня

Время (UTC), дата Ветер
(°,м/с) 
Видим.   Явления Облачность Т
(°С)
Тd
(°С)
f(%) Тe
(°С)
Pmin
(гПа)
dP
(гПа)
Po
(мм)
O2
(г/м3)
Тmin Tmax R s Состояние
почвы
15 27.03.20 120 (ЮВ) 10 км    3/0 верхняя 
[Ci fib]
+14.8 -4.2 27 +15  1021.9  -1.9  738  282           
18 27.03.20 080 (В) 10 км    ясно 
+11.2 -5.7 30 +11  1022  -0.4  737  286    +15.2       
21 27.03.20 100 (В) 10 км    ясно 
+8.3 -5.8 36 +8  1021.7  -0.7  737  289           
00 28.03.20 100 (В) 10 км    ясно 
+7.1 -6.7 37 +7  1020.5  -1.3  736  290           
03 28.03.20 070 (В) 10 км    6/0 верхняя 
[Ci fib]
+5.5 -6.1 43 +6  1019.4  -1.3  735  291           
06 28.03.20 080 (В) 10 км    9/0 средняя 
[Ac trans]
+7.5 -8.9 30 +8  1018.6  -0.5  735  289  +4.4         
09 28.03.20 120 (ЮВ) 10 км    8/0 средняя 
[Ac trans]
+13.1 -6.9 24 +13  1017.2  -0.6  734  283           
12 28.03.20 010 (С) 10 км    6/0 средняя, верхняя 
[Ac trans|Ci fib]
+16.3 -8.1 18 +17  1014.2  -2.5  732  279           
15 28.03.20 360 (С) 10 км    10/0 средняя 
[Ac As]
+15.5 -8.4 18 +16  1012.1  -2.1  731  279           
18 28.03.20 350 (С) 10 км    6/0 средняя 
[Ac trans]
+12.1 -6.5 27 +12  1012  -0.6  730  282    +16.4       
21 28.03.20 тихо ()   10 км    4/0 верхняя 
[Ci fib]
+4.9 -3.2 56 +5  1012.5  -0.5  730  289           
00 29.03.20 тихо ()   10 км    4/0 верхняя 
[Ci fib]
+0.5 -3.1 77 +1  1012  -1.1  729  294           
03 29.03.20 тихо ()   7000 м  дымка  3/0 средняя 
[Ac trans]
-0.5 -3.5 80 -1  1011.1  -1  728  294           
06 29.03.20 тихо ()   7000 м  дымка  8/0 средняя 
[Ac trans]
+2 -1.6 77 +2  1010.6  -0.1  728  291  -1.2         
09 29.03.20 320 (СЗ) 10 км    6/0 средняя 
[Ac trans]
+11.9 -3.4 34 +12  1009.1  -0.1  728  281           
12 29.03.20 350 (С) 10 км    8/0 средняя, верхняя 
[Ac trans|Ci fib]
+15.4 -6 22 +16  1007.4  -1.2  727  278           
15 29.03.20 330 (СЗ) 10 км    10/3 1000 м кучево-дожд., средняя 
[Cb calv|Ac As]
+14.4 -6.4 23 +15  1007.2  -0.3  727  279           
18 29.03.20 300 (СЗ) 10 км    10/0 средняя 
[Ac As]
+12.1 -0.8 41 +11  1009  1.4  728  281    +16.6       
21 29.03.20 330 (СЗ) 10 км    10/0 средняя 
[Ac As]
+9.8 +0.9 54 +9  1010.8  1.5  729  283           
00 30.03.20 330 (СЗ) 10 км  в посл. час дождь  9/6 1380 м средняя 
[Sc|Ac trans]
+4.7 +0 72 +3  1013.2  1.6  731  289           
03 30.03.20 330 (СЗ) 10 км  слаб. дождь  10/10 480 м 
[Ns]
+2 -0.2 85 1015  1.3  731  293           
06 30.03.20 330 (СЗ) 9000 м  слаб. ливневой снег  10/10 200 м кучево-дожд. 
[Cb cap]
-1.1 -1.7 96 -4  1017.5  733  297  -1.2       
09 30.03.20 330 (СЗ) 4000 м  ливневой снег  10/10 450 м кучево-дожд. 
[Cb calv]
-1 -2.9 87 -4  1019.2  1.6  734  297           
12 30.03.20 320 (СЗ) 9000 м  слаб. ливневой снег  10/10 330 м кучево-дожд. 
[Cb cap]
-0.7 -2.2 90 -3  1019.5  0.4  734  297           
15 30.03.20 340 (С) 10 км  {ливн. осадки}  10/10 1380 м кучево-дожд. 
[Cb calv]
+0.9 -10.4 43 -2  1019.6  0.2  735  296           
Время (UTC), дата Ветер
(°,м/с) 
Видим.   Явления Облачность Т
(°С)
Тd
(°С)
f(%) Тe
(°С)
Pmin
(гПа)
dP
(гПа)
Po
(мм)
O2
(г/м3)
Тmin Tmax R s Состояние
почвы

Для получения пояснительной информации подведите курсор к названию столбца.

ПОГОДА в Львове - архив

Всё, что Вы хотите узнать о погоде в Львове - удобно и подробно!

Выберите нужную дату (начиная с 1 января 2019* года) и нажмите кнопку "Найти".
Будут отображены архивные сводки погоды по пункту Львов, начиная с указанной даты.


Отображать данные в формате CSV (для использования в таблицах Excel)


Внимание! Наш архив погоды предназначен исключительно для личного некоммерческого использования в познавательных целях. Если Вам необходимы официальные справки о состоянии погоды (для производственных, юридических, коммерческих и т.п. целей), обращайтесь в органы Росгидромета.

*Примечание: данная дата относится к архиву по метеостанциям СССР (Россия, СНГ, Балтия).
Архив по метеостанциям Зарубежной Европы и Азии (кроме Китая) хранится 10 дней, по другим регионам земного шара (Китай, Африка, Америка, Австралия, Океания) - 1 день.

Львов - район местоположения метеостанции


Название, широта, долгота, высота метеостанции:
Львов 49.8°ш. 23.9°д. 323 м над ур. моря [Украина]

Дополнительная информация

В oтличие oт бoльшинства пoгoдных сайтoв мы публикуем пoдрoбную метеoинфoрмацию в детальнoм прoфессиoнальнoм фoрмате.

Характеристики температуры и влажнoсти вoздуха измеряются на высoте 2 м в тени вдали oт зданий и деревьев.
Скoрoсть ветра измеряется на высoте 10 м (на урoвне рoста челoвека скoрoсть ветра ниже в 1.5-2 раза). Если метеoстанция нахoдится в гoрoде или в лесу, тo скoрoсть ветра занижена на 2-4 м/с пo сравнению с oткрытым местoм. Скoрoсть ветра над акватoриями крупных рек и oзёр, а также на вершинах хoлмoв на 2-5 м/с выше, чем в oбычных услoвиях.
Атмoсфернoе давление в разных тoчках местнoсти мoжет значительнo oтличаться oт давления на метеoстанции, в зависимoсти oт услoвий рельефа (при пoдъёме на 10 м давление пoнижается примернo на 1 мм рт.ст.).